Location: Monroe
(41.9160°N, 83.3980°W)
Time: 05:56:22
(UTC-05:00)

ISS - All Passes

Search period start: 17 January 2017 00:00
Search period end: 27 January 2017 00:00
Orbit: 400 x 410 km, 51.6° (Epoch: 17 January)

Date Brightness Start Highest point End Pass type
(mag) Time Alt. Az. Time Alt. Az. Time Alt. Az.
17 Jan - 01:11:22 10° W 01:14:26 38° NNW 01:17:30 10° NE night (unlit)
17 Jan - 02:49:30 10° NW 02:51:35 16° N 02:53:40 10° NNE night (unlit)
17 Jan - 04:26:39 10° NNW 04:28:59 18° NNE 04:31:20 10° ENE visible
17 Jan - 06:02:44 10° NW 06:05:58 62° NNE 06:09:11 10° ESE visible
17 Jan - 07:40:06 10° W 07:42:07 15° SW 07:44:08 10° S daylight
17 Jan - 22:44:05 10° SSE 22:46:02 15° SE 22:47:58 10° E night (unlit)
18 Jan - 00:18:56 10° WSW 00:22:10 64° NNW 00:25:24 10° NE night (unlit)
18 Jan - 01:56:46 10° WNW 01:59:08 18° NNW 02:01:29 10° NNE night (unlit)
18 Jan - 03:34:27 10° NNW 03:36:32 16° N 03:38:36 10° NE night (unlit)
18 Jan - 05:10:38 10° NW 05:13:41 37° NNE 05:16:44 10° E visible
18 Jan - 06:47:14 10° WNW 06:50:06 29° SW 06:52:56 10° SSE visible
18 Jan - 23:26:44 10° SW 23:29:57 68° SE 23:33:12 10° ENE night (unlit)
19 Jan - 01:04:00 10° WNW 01:06:41 23° NNW 01:09:23 10° NE night (unlit)
19 Jan - 02:42:04 10° NW 02:44:02 15° N 02:45:58 10° NE night (unlit)
19 Jan - 04:18:33 10° NW 04:21:20 25° NNE 04:24:07 10° E visible
19 Jan - 05:54:48 10° WNW 05:58:00 56° SW 06:01:11 10° SE visible
19 Jan - 22:34:50 10° SSW 22:37:49 34° SE 22:40:49 10° ENE night (unlit)
20 Jan - 00:11:19 10° W 00:14:18 32° NNW 00:17:18 10° NE night (unlit)
20 Jan - 01:49:30 10° NW 01:51:31 15° N 01:53:32 10° NNE night (unlit)
20 Jan - 03:26:27 10° NW 03:28:54 19° NNE 03:31:22 10° ENE night (unlit)
20 Jan - 05:02:33 10° NW 05:05:48 77° NNE 05:09:02 10° ESE visible
20 Jan - 06:40:26 10° WSW 06:41:51 12° SW 06:43:16 10° SSW visible
20 Jan - 21:43:24 10° S 21:45:45 19° SE 21:48:06 10° E night (unlit)
20 Jan - 23:18:47 10° WSW 23:21:58 52° NNW 23:25:10 10° NE night (unlit)
21 Jan - 00:56:45 10° NW 00:59:00 17° N 01:01:15 10° NNE night (unlit)
21 Jan - 02:34:15 10° NNW 02:36:25 16° N 02:38:34 10° NE night (unlit)
21 Jan - 04:10:23 10° NW 04:13:31 43° NNE 04:16:38 10° ESE night (unlit)
21 Jan - 05:47:11 10° W 05:49:50 23° SW 05:52:27 10° S visible
21 Jan - 22:26:27 10° SW 22:29:42 86° SSE 22:32:58 10° NE night (unlit)
22 Jan - 00:03:57 10° WNW 00:06:31 21° NNW 00:09:06 10° NE night (unlit)
22 Jan - 01:41:55 10° NW 01:43:53 15° N 01:45:51 10° NE night (unlit)
22 Jan - 03:18:15 10° NW 03:21:09 28° NNE 03:24:02 10° E night (unlit)
22 Jan - 04:54:37 10° WNW 04:57:43 43° SW 05:00:49 10° SSE visible
22 Jan - 21:34:23 10° SSW 21:37:30 44° SE 21:40:37 10° ENE night (unlit)
22 Jan - 23:11:10 10° W 23:14:04 28° NNW 23:16:57 10° NE night (unlit)
23 Jan - 00:49:22 10° NW 00:51:20 15° N 00:53:18 10° NE night (unlit)
23 Jan - 02:26:07 10° NW 02:28:41 21° NNE 02:31:16 10° ENE night (unlit)
23 Jan - 04:02:15 10° NW 04:05:30 86° SW 04:08:45 10° SE night (unlit)
23 Jan - 20:42:42 10° S 20:45:22 23° SE 20:48:01 10° E night (unlit)
23 Jan - 22:18:32 10° WSW 22:21:41 43° NNW 22:24:49 10° NE night (unlit)
23 Jan - 23:56:37 10° NW 23:58:47 16° N 00:00:56 10° NNE night (unlit)
24 Jan - 01:33:56 10° NNW 01:36:11 17° NNE 01:38:26 10° NE night (unlit)
24 Jan - 03:10:01 10° NW 03:13:13 52° NNE 03:16:24 10° ESE night (unlit)
24 Jan - 04:47:05 10° W 04:49:26 18° SW 04:51:45 10° S night (unlit)
24 Jan - 19:51:50 10° SSE 19:53:17 12° SE 19:54:44 10° ESE visible
24 Jan - 21:26:05 10° WSW 21:29:21 77° NNW 21:32:36 10° NE night (unlit)
24 Jan - 23:03:46 10° WNW 23:06:14 19° NNW 23:08:42 10° NE night (unlit)
25 Jan - 00:41:36 10° NNW 00:43:37 15° N 00:45:39 10° NE night (unlit)
25 Jan - 02:17:50 10° NW 02:20:50 32° NNE 02:23:48 10° E night (unlit)
25 Jan - 03:54:19 10° WNW 03:57:18 34° SW 04:00:17 10° SSE night (unlit)
25 Jan - 20:33:52 10° SW 20:37:04 56° SE 20:40:17 10° ENE visible
25 Jan - 22:10:57 10° W 22:13:43 25° NNW 22:16:31 10° NE night (unlit)
25 Jan - 23:49:04 10° NW 23:51:02 15° N 23:52:59 10° NE night (unlit)
26 Jan - 01:25:40 10° NW 01:28:22 23° NNE 01:31:02 10° ENE night (unlit)
26 Jan - 03:01:52 10° WNW 03:05:05 68° SW 03:08:19 10° SE night (unlit)
26 Jan - 19:42:00 10° SSW 19:44:52 29° SE 19:47:45 10° ENE visible
26 Jan - 21:18:12 10° W 21:21:16 37° NNW 21:24:20 10° NE night (unlit)
26 Jan - 22:56:21 10° NW 22:58:26 16° N 23:00:31 10° NNE night (unlit)
